24h
KLIENDITUGI:
Saartelennuliinid: +372 58856336 (24/7)
Estairi piletikassa lennujaamas:
+372 6058887; +372 55603687

07.11.2018 hommikune Transaviabaltika lend KTB670 Tallinn - Kärdla ja KTB671 Kärdla – Tallinn väljalend jääb ära. Lennu ära jäämise põhjustab ilmastikuolu Kärdla lennuväljal. Reisijatele võimaldatakse tasuta lennupileti ümberbroneerimine reisija soovi kohasele mõnele teisele Tallinn-Kärdla või Kärdla-Tallinn lennule. Reisijatele kes ei soovi lennupileti ümberbroneerimist teisele lennule tagastatakse piletiraha. Oma soovist tuleb teada anda e-mailile [email protected] Lisainformatsioon telefonil 58856336.

EEKA Kärdla lennuväli FCEO32 EETN 070400

TAF EEKA 070400Z 0705/0711 17008KT 5000 BR OVC004 TEMPO 0705/0711 1500 OVC002=

METAR EEKA 070350Z 17006KT 4500 BR OVC003 08/08 Q1018=
Kuupäev: 
07/11/2018